Flag for Tunisia Weather past 2 weeks in Tunis, Tunisia

Now
59 °F

Scattered clouds.


Feels Like: 57 °F
Forecast: 49 / 54 °F
Wind: 10 mph from West

Location: Tunis-Carthage

Current Time: Feb 27, 2015 at 4:25:48 PM

Latest Report: Feb 27, 2015 at 4:00 PM


Visibility: N/A

Pressure: 29.89 "Hg

Humidity: 59%

Dew point: 45 °F

Location of TunisLocation

Historic Weather in Tunis — Graph

°F

Tunis temperature yesterday

Maximum temperature yesterday: 59 °F (at 12:00 PM)
Minimum temperature yesterday: 50 °F (at 12:30 AM)
Average temperature yesterday: 53 °F

Past Weeks' High & Low Weather Summary

 TemperatureHumidityPressure
High64 °F (Feb 15, 3:00 PM)100% (Feb 13, 6:30 AM)30.39 "Hg (Feb 13, 6:30 AM)
Low41 °F (Feb 20, 6:30 AM)46% (Feb 15, 3:00 PM)29.39 "Hg (Feb 22, 5:00 AM)
Average53 °F79%29.93 "Hg
* Reported Feb 12 3:00 PM — Feb 27 3:00 PM, Tunis, Weather by CustomWeather, © 2015

Note: Actual official high and low records may vary slightly from our data, if they occured in-between our weather recording intervals... More about our weather records

Advertising

Tunis weather history for previous 24 hours

 ConditionsComfort  
Time TempWeatherWind HumidityBarometerVisibility
3:00 PM
Fri, Feb 27
57 °FScattered clouds.13 mph67%29.89 "HgN/A
2:30 PM59 °FScattered clouds.14 mph63%29.89 "HgN/A
2:00 PM59 °FScattered clouds.12 mph63%29.89 "HgN/A
1:30 PM57 °FScattered clouds.14 mph63%29.89 "HgN/A
1:00 PM59 °FScattered clouds.15 mph68%29.89 "HgN/A
12:30 PM57 °FScattered clouds.16 mph67%29.92 "HgN/A
12:00 PM55 °FScattered clouds.15 mph67%29.92 "HgN/A
11:00 AM57 °FScattered clouds.12 mph67%29.92 "HgN/A
10:30 AM55 °FScattered clouds.14 mph72%29.92 "HgN/A
10:00 AM55 °FScattered clouds.13 mph72%29.92 "HgN/A
9:30 AM54 °FScattered clouds.14 mph77%29.92 "HgN/A
9:00 AM54 °FScattered clouds.12 mph77%29.89 "HgN/A
8:30 AM52 °FScattered clouds.12 mph82%29.89 "HgN/A
8:00 AM50 °FScattered clouds.10 mph88%29.89 "HgN/A
7:30 AM50 °FScattered clouds.10 mph88%29.89 "HgN/A
6:30 AM50 °FPassing clouds.6 mph94%29.86 "HgN/A
6:00 AM50 °FPassing clouds.9 mph88%29.86 "HgN/A
5:30 AM50 °FPassing clouds.10 mph88%29.86 "HgN/A
4:30 AM50 °FPassing clouds.9 mph94%29.86 "HgN/A
4:00 AM50 °FPassing clouds.9 mph94%29.86 "HgN/A
3:30 AM50 °FPassing clouds.10 mph88%29.86 "HgN/A
3:00 AM50 °FCool.12 mph94%29.86 "HgN/A
2:30 AM50 °FPassing clouds.12 mph94%29.86 "HgN/A
2:00 AM52 °FPassing clouds.12 mph82%29.86 "HgN/A
1:30 AM50 °FPassing clouds.9 mph88%29.86 "HgN/A
1:00 AM50 °FPassing clouds.10 mph94%29.86 "HgN/A
12:30 AM50 °FPassing clouds.9 mph94%29.86 "HgN/A
12:00 AM52 °FPassing clouds.12 mph82%29.86 "Hg5 mi
11:30 PM
Thu, Feb 26
52 °FPassing clouds.10 mph82%29.86 "Hg5 mi
11:00 PM52 °FPassing clouds.10 mph82%29.86 "Hg5 mi
10:30 PM52 °FPassing clouds.12 mph77%29.86 "Hg5 mi
10:00 PM52 °FPassing clouds.12 mph82%29.86 "Hg5 mi
9:30 PM52 °FPassing clouds.9 mph82%29.86 "Hg5 mi
9:00 PM52 °FPassing clouds.10 mph82%29.86 "Hg5 mi
8:30 PM52 °FPassing clouds.10 mph82%29.83 "Hg5 mi
8:00 PM52 °FPassing clouds.12 mph82%29.83 "Hg5 mi
7:30 PM54 °FPassing clouds.10 mph77%29.83 "Hg5 mi
7:00 PM54 °FPassing clouds.10 mph82%29.83 "Hg5 mi
6:30 PM52 °FPassing clouds.10 mph88%29.83 "Hg5 mi
6:00 PM54 °FScattered clouds.12 mph82%29.80 "Hg5 mi
5:30 PM54 °FScattered clouds.14 mph82%29.80 "Hg5 mi
5:00 PM52 °FScattered clouds.15 mph88%29.80 "Hg5 mi
4:30 PM57 °FScattered clouds.15 mph67%29.80 "HgN/A
4:00 PM55 °FScattered clouds.12 mph82%29.80 "HgN/A
Weather by CustomWeather, © 2015

See weather overviewHow to use our weather pages